Wind_Speed
6 7 7 8 5 6 11 14 15 14 10 15 4 14 16 17 10 13 19 21 19 20 16 14 15 16 16 16 16 16 15 15 16 16 16 14 14 14 15 14 15 17 18 18 17 16 16 14 14
8 4 10 6 4 10 9 13 13 11 15 10 10 7 19 18 20 19 19 19 19 20 20 16 15 17 16 17 16 17 16 16 15 16 16 15 14 15 14 15 16 16 16 17 18 18 18 17 16
4 5 8 1 5 6 10 14 11 14 12 7 6 15 10 16 14 20 22 18 20 26 20 17 16 16 16 17 18 17 16 15 15 15 15 14 15 14 15 16 15 16 16 16 17 17 16 16 15
4 3 4 4 5 11 14 15 14 14 10 10 12 13 18 15 16 23 20 19 19 22 19 16 15 15 16 17 16 17 16 15 15 15 15 15 15 15 16 16 16 16 15 15 15 16 16 15 14
6 3 2 7 12 10 13 15 13 10 9 7 4 20 15 14 24 21 19 18 25 19 17 16 15 15 16 16 16 16 16 15 14 15 14 15 14 15 15 16 15 15 15 14 16 15 15 13 12
6 4 3 6 12 8 12 13 10 7 9 7 18 17 14 20 21 20 17 17 21 19 18 16 15 16 17 15 16 17 16 16 14 14 15 15 14 14 15 15 15 15 15 15 15 14 14 12 12
9 6 6 1 11 12 8 8 8 2 6 12 14 16 14 19 19 18 16 14 17 18 17 16 15 14 14 15 15 15 15 15 13 14 14 14 13 13 14 14 14 14 14 14 12 12 12 12 11
2 3 7 5 7 7 3 7 5 9 9 11 11 13 18 21 19 17 15 14 13 11 18 14 15 16 15 14 15 15 16 15 14 14 13 13 14 14 13 14 12 12 12 12 12 11 11 12 12
3 5 2 6 4 3 6 10 6 3 8 5 2 21 22 23 20 18 16 15 14 14 15 13 20 16 15 15 15 16 15 16 14 12 11 13 11 12 12 11 10 9 10 10 9 9 10 12 15
4 2 12 8 8 1 3 6 5 6 7 9 13 22 25 22 19 17 16 15 12 16 14 7 18 15 15 14 14 14 14 11 11 9 8 9 11 11 11 9 9 9 9 8 8 7 4 8 8
5 1 6 9 12 10 0 9 3 9 10 11 13 17 21 21 17 18 14 15 15 16 13 15 14 17 14 14 14 12 12 13 11 9 8 10 12 11 11 9 8 5 4 4 2 3 2 2 4
4 7 6 6 10 6 7 5 2 11 9 10 16 19 18 17 15 14 14 13 16 13 15 16 13 19 16 12 11 11 11 13 12 10 9 8 10 5 6 8 8 6 7 4 3 7 5 4 0
6 9 8 6 10 3 2 12 4 8 4 10 17 17 17 13 12 12 12 14 20 13 17 18 13 15 12 14 12 13 11 13 12 11 9 6 10 7 7 6 4 5 5 6 4 5 5 5 6
10 10 10 7 8 10 8 7 3 5 4 14 17 17 14 13 15 14 15 11 15 16 15 19 16 13 12 7 9 11 10 11 12 11 8 7 5 2 9 7 9 4 4 3 4 4 3 8 8
7 8 9 6 11 10 12 5 3 8 12 13 14 14 14 10 11 11 16 18 12 16 16 14 16 16 14 13 11 10 11 12 11 13 10 4 3 2 7 4 4 7 4 3 4 3 3 7 9
8 10 9 8 7 8 11 8 8 7 11 6 11 12 9 18 10 11 14 16 15 15 13 14 16 18 16 14 11 11 11 11 10 11 10 6 4 6 4 6 3 5 4 5 4 5 6 7 9
13 3 11 8 6 7 12 4 22 14 11 8 4 11 15 11 13 7 16 19 16 15 14 14 13 16 16 14 12 12 11 10 10 11 11 6 6 5 6 4 5 5 5 3 7 4 4 5 8
13 17 13 11 8 8 9 3 20 16 11 11 10 8 13 17 18 13 15 20 13 17 17 14 15 15 14 15 12 13 13 10 11 10 9 8 7 4 4 6 4 8 7 9 8 3 3 5 7
4 3 12 5 7 5 7 9 18 17 14 14 12 16 9 19 26 17 12 17 19 19 17 13 12 12 16 17 16 14 15 13 12 10 8 7 7 4 7 5 6 4 3 12 4 5 3 3 2
7 7 5 7 6 6 7 5 13 20 21 18 15 13 15 14 15 26 15 18 20 21 22 18 16 16 15 17 17 15 13 14 12 10 10 9 7 5 7 3 5 3 4 4 3 3 4 3 5
11 1 5 8 10 9 7 10 13 15 17 18 16 15 19 18 19 17 19 18 18 19 20 18 17 17 15 15 14 13 12 10 11 12 10 11 9 7 5 5 5 5 4 11 5 1 6 9 4
14 6 8 2 9 2 14 4 13 17 15 17 16 22 20 17 11 14 25 18 19 20 19 20 19 18 15 15 15 13 13 13 11 9 11 14 10 9 8 6 4 5 11 6 7 2 7 8 6
12 9 11 6 9 15 14 7 7 18 15 18 22 26 24 15 23 16 24 22 19 20 20 20 18 17 18 17 13 17 15 13 13 13 10 6 12 9 9 7 5 5 5 3 4 3 4 5 8
12 4 7 9 13 12 14 12 2 8 15 17 24 25 24 20 20 18 24 27 18 22 20 21 20 17 18 18 12 13 12 11 13 10 10 13 13 12 10 8 6 6 7 5 4 3 2 4 5
11 13 11 12 10 3 10 8 7 14 8 18 26 25 20 21 17 18 16 24 22 21 21 22 21 20 20 19 17 14 13 11 4 9 12 13 13 14 15 11 8 8 7 6 7 5 4 4 3
14 18 12 1 10 4 15 5 2 7 2 5 24 25 22 20 14 16 18 24 26 24 21 21 23 21 21 20 19 17 15 12 12 13 12 11 8 8 17 11 10 9 8 8 8 9 9 9 5
12 14 21 1 17 6 4 5 11 8 7 5 10 16 20 19 16 11 24 23 25 22 22 21 22 21 22 22 20 16 15 16 16 12 13 9 9 5 8 9 11 11 11 9 9 11 10 9 6
16 9 11 6 9 7 10 12 3 6 9 6 3 12 18 20 20 11 19 25 23 23 23 22 21 21 22 23 22 19 17 17 15 9 9 9 8 11 7 9 9 10 12 12 10 13 13 10 10
7 13 14 4 3 6 2 1 6 5 9 8 5 5 8 13 18 17 9 23 25 25 24 23 21 20 21 21 21 20 19 18 17 14 12 13 12 10 9 9 11 12 12 13 11 13 12 10 10
8 14 13 7 8 7 3 4 18 7 10 10 8 4 10 11 3 2 11 13 21 21 24 23 22 21 21 20 20 20 18 18 19 17 16 15 15 15 14 13 13 13 13 13 14 15 15 14 11
Wind_Direction
222 230 264 251 253 211 94 100 97 110 84 81 59 61 63 31 57 95 132 115 131 115 120 118 120 117 115 117 113 107 109 104 101 100 94 94 94 92 93 93 91 90 89 90 94 101 100 102 105
242 276 239 273 249 116 105 112 109 91 95 97 111 119 66 69 91 111 116 132 128 124 120 116 116 113 112 113 109 112 108 104 100 95 94 92 90 95 94 93 89 89 87 87 91 95 98 100 102
264 280 268 108 257 104 124 120 114 108 99 92 83 37 43 109 116 115 124 132 116 109 107 113 114 113 114 113 113 111 109 102 99 95 95 93 93 93 92 92 90 88 91 90 96 94 97 97 98
253 273 250 350 120 81 116 119 114 129 128 87 122 86 100 87 106 120 131 125 120 97 106 112 115 117 117 119 112 114 113 107 104 102 96 95 94 94 93 92 93 93 90 93 101 94 94 95 98
223 207 274 261 105 102 103 115 129 124 126 88 47 111 104 96 114 126 137 129 125 128 119 111 114 120 120 119 113 113 110 107 104 105 102 100 97 96 98 94 92 90 85 95 89 88 94 99 101
245 240 323 122 102 103 111 109 116 109 87 118 97 120 105 124 132 135 140 134 118 117 115 114 114 121 125 119 116 113 112 111 104 104 100 98 98 99 95 93 92 89 88 99 95 93 98 102 100
264 21 278 298 125 103 88 118 100 103 166 120 134 117 130 144 134 136 143 130 122 125 120 127 123 121 126 118 113 116 117 112 106 105 105 103 103 106 105 100 96 94 97 98 97 95 94 95 97
252 128 301 134 90 89 79 105 116 139 59 87 148 133 154 132 144 143 131 134 125 125 113 121 132 128 125 119 116 119 113 111 113 114 124 112 100 104 109 103 101 97 93 95 91 94 103 95 91
236 101 279 312 115 199 148 128 75 67 140 133 69 137 133 144 146 148 151 130 144 126 117 158 128 110 116 121 123 115 115 115 112 112 117 125 107 114 112 123 109 102 97 98 92 86 107 111 96
113 217 182 183 142 277 100 89 118 144 119 135 85 106 133 149 162 150 160 145 146 137 139 110 121 136 135 128 127 123 123 111 119 114 109 125 84 100 119 122 110 103 99 97 85 100 118 155 156
300 180 106 152 132 208 71 113 146 175 160 140 140 137 150 161 166 167 153 159 157 138 155 132 130 142 129 143 139 135 128 118 118 129 127 117 130 133 118 124 129 126 121 165 154 307 288 21 117
104 55 75 129 150 183 199 176 69 60 39 98 128 147 156 170 174 157 154 158 130 148 150 135 148 125 140 142 150 141 153 129 135 123 127 144 125 109 128 112 97 160 128 144 260 86 82 109 10
134 114 100 147 145 160 143 55 48 53 119 145 136 154 165 165 149 159 154 156 132 166 141 143 151 136 162 162 160 174 146 143 117 141 156 115 119 133 103 140 140 102 159 115 106 93 87 123 126
113 113 125 124 118 156 106 36 31 45 334 131 145 157 166 157 165 147 147 135 146 159 159 139 151 151 161 164 146 127 142 126 155 139 151 143 159 154 133 160 151 145 118 104 101 10 120 111 114
121 140 140 137 139 144 133 60 89 304 322 154 165 149 157 138 148 154 143 147 163 154 158 148 151 156 158 154 155 169 140 162 146 135 146 151 142 180 140 154 120 138 93 150 150 190 152 106 113
224 195 176 155 181 146 205 177 202 257 291 222 164 165 156 141 160 163 154 129 174 168 155 167 166 159 160 159 165 167 163 157 160 152 158 161 136 165 236 178 159 144 199 195 160 207 134 131 140
193 197 327 134 180 172 205 155 191 193 244 268 277 216 158 151 148 222 153 164 161 146 155 174 170 162 161 156 165 166 157 173 162 162 162 156 158 194 263 169 107 236 195 141 178 179 160 151 151
334 166 197 142 170 217 216 199 164 183 207 248 253 256 195 176 147 191 169 142 160 154 157 159 167 154 163 160 166 171 169 175 168 175 144 150 156 187 239 130 171 240 254 155 56 145 167 184 198
215 255 95 280 130 209 233 188 170 177 193 196 245 261 222 220 151 164 192 160 155 155 158 165 161 170 173 173 177 172 174 173 175 175 126 180 137 171 242 190 226 189 348 72 134 153 188 170 228
238 250 170 108 158 235 248 255 168 185 198 192 221 246 272 237 156 162 212 172 164 162 168 161 168 173 176 180 186 180 175 172 180 166 163 182 183 181 209 302 238 319 117 127 179 269 232 163 195
243 269 5 104 234 225 260 244 186 185 198 186 211 234 255 265 155 165 184 181 171 165 165 168 177 176 190 168 171 180 178 173 177 167 178 191 194 196 220 218 293 315 258 161 138 212 303 303 159
256 338 172 35 271 134 247 314 200 186 193 191 201 225 236 238 182 214 167 211 178 168 180 170 184 178 195 180 169 178 192 189 195 188 199 171 193 203 199 208 222 248 288 112 103 68 336 337 297
107 225 249 257 277 275 248 240 134 170 204 189 200 209 224 242 228 190 161 188 181 167 178 179 185 182 188 198 199 176 197 190 179 196 152 215 187 204 206 205 208 228 263 346 10 13 322 314 316
262 215 245 241 249 260 258 226 139 210 201 191 194 204 210 238 196 184 174 165 199 169 178 177 178 187 190 196 198 207 219 250 191 195 170 204 188 201 208 207 214 224 231 234 238 234 257 328 346
233 235 235 223 211 255 25 293 103 210 157 178 189 210 199 224 205 192 173 158 175 180 183 174 181 187 191 196 197 198 222 232 147 178 210 224 203 193 190 200 217 224 224 235 236 229 240 240 270
214 243 253 3 277 27 322 218 174 89 90 210 178 192 209 195 227 188 190 165 169 199 185 184 178 192 193 195 201 198 205 208 216 204 237 225 252 214 165 187 221 227 224 230 230 234 236 226 237
203 228 262 94 247 241 307 103 182 63 81 133 191 180 195 200 211 276 182 186 178 183 183 196 179 193 198 197 201 198 202 210 212 240 211 219 246 303 177 204 217 226 227 228 235 236 238 256 236
267 309 237 203 236 267 192 275 109 30 51 85 168 178 177 194 212 192 218 181 189 180 187 199 189 194 199 201 202 206 207 214 224 224 215 234 233 246 257 225 225 227 234 231 228 244 228 232 248
218 235 254 284 118 261 5 310 13 70 51 39 127 187 152 221 202 197 244 178 189 187 182 193 194 193 200 202 202 207 208 208 210 221 225 227 229 233 246 234 233 228 237 231 237 245 275 225 242
254 278 346 352 318 58 50 245 317 57 54 45 79 91 114 149 180 299 344 191 183 187 180 189 192 197 200 203 203 206 212 213 210 211 219 225 222 230 230 228 225 232 229 233 230 235 244 237 246
Height
775 773 770 765 780 760 765 768 751 762 760 748 752 753 765 768 774 802 790 797 802 809 816 820 822 822 824 825 826 827 829 828 829 829 828 830 830 830 830 833 832 832 832 833 833 834 835 836 837
772 772 767 756 782 773 776 754 766 759 753 753 756 756 767 784 774 783 794 800 803 807 814 820 823 825 826 827 828 829 830 831 831 830 831 833 832 833 835 835 834 835 835 835 835 836 837 838 840
773 770 762 761 772 771 775 758 756 756 755 758 765 760 767 785 781 786 797 800 803 810 816 822 824 826 828 828 830 831 832 832 832 832 834 835 836 836 837 837 836 837 838 838 839 839 841 842 843
771 771 763 779 765 751 751 753 752 759 762 756 763 783 775 783 785 794 799 802 806 813 819 824 826 827 829 831 832 833 834 834 835 836 837 838 839 839 840 840 840 841 840 841 842 842 843 845 846
770 771 767 798 755 747 744 745 750 765 766 763 760 782 789 789 792 798 800 802 805 813 820 826 827 830 831 832 834 835 836 837 838 839 841 841 841 842 843 843 845 843 843 845 844 845 846 848 849
765 751 795 771 768 755 748 749 760 766 760 767 773 782 789 793 796 801 800 802 807 813 819 827 829 832 833 835 836 837 839 839 841 842 842 842 844 844 846 846 846 847 847 848 848 849 849 850 851
766 776 776 773 773 770 763 750 763 771 767 766 764 788 790 793 798 801 802 804 807 813 818 825 830 833 835 837 838 839 840 841 843 843 844 845 846 847 848 849 850 850 851 851 851 851 852 852 852
757 771 795 769 785 785 764 763 759 772 768 760 761 787 794 792 799 802 804 807 810 813 818 823 828 832 835 838 839 841 842 843 844 845 846 846 848 849 850 851 852 853 852 853 853 853 853 853 854
750 793 812 794 792 797 764 768 766 763 769 765 768 770 782 795 800 802 806 808 813 817 822 823 826 832 836 838 841 842 844 845 846 847 848 848 848 851 853 853 854 854 854 854 855 855 854 854 855
764 784 782 779 790 794 771 781 769 771 775 774 772 776 788 797 800 801 802 808 812 819 823 825 826 833 837 839 842 845 846 847 849 850 849 849 850 852 854 855 855 855 855 856 856 855 854 854 854
760 773 764 769 782 781 776 771 770 777 783 774 781 785 792 796 798 800 801 807 811 817 824 827 831 834 838 840 841 845 847 848 850 851 851 853 853 853 855 855 856 856 856 857 855 854 854 854 853
767 763 763 772 781 781 779 773 776 780 772 766 776 787 792 793 794 797 801 806 813 819 823 828 834 830 839 841 842 845 845 847 849 852 854 853 852 853 852 853 855 856 856 858 855 855 857 857 855
768 767 767 768 775 783 776 787 782 783 774 771 779 787 790 791 797 800 804 808 816 822 825 830 835 837 841 842 843 843 845 845 850 853 854 854 855 855 855 856 854 854 855 856 856 856 856 857 857
748 762 769 770 776 782 788 799 790 789 779 776 782 785 789 794 797 800 805 811 818 822 826 828 835 840 843 841 843 842 845 848 849 852 855 855 855 856 857 856 856 856 856 856 857 857 856 855 858
755 773 769 778 780 789 793 814 808 799 790 780 784 787 789 795 797 801 808 813 819 822 826 829 834 839 843 845 847 846 847 849 850 852 857 858 857 857 856 856 857 856 859 860 860 859 857 856 857
762 761 783 775 774 783 787 821 813 805 800 789 787 789 791 795 801 801 804 813 819 820 825 830 831 835 842 844 846 846 848 849 851 854 858 859 859 859 855 857 856 858 857 856 856 856 856 856 858
754 787 806 783 772 780 787 802 804 806 802 799 797 790 790 794 802 805 804 812 813 820 826 831 833 835 840 845 847 847 849 850 852 854 855 859 860 859 856 856 857 858 856 855 856 856 857 858 858
785 764 768 783 777 778 786 792 792 802 806 802 800 797 789 791 800 804 803 808 814 821 828 831 834 836 841 844 847 848 852 851 853 854 855 859 859 860 858 857 859 857 855 856 856 859 859 858 857
758 762 774 785 768 778 781 783 792 800 805 805 803 798 789 791 793 801 802 806 816 820 828 832 836 839 841 844 846 847 849 851 853 853 856 859 859 861 860 859 858 848 850 857 862 862 862 860 860
755 758 770 766 768 775 780 777 779 790 792 798 805 793 791 785 791 794 803 803 809 817 826 832 836 839 841 843 844 846 847 850 852 853 857 860 860 862 862 860 858 854 856 860 862 861 859 859 861
756 760 774 775 783 767 775 778 780 779 784 794 801 798 791 788 796 791 802 800 806 814 821 829 835 838 839 841 843 846 848 849 851 853 856 858 860 862 862 862 861 857 855 856 860 862 860 861 860
761 746 762 769 775 795 763 786 775 776 785 795 800 794 784 784 781 787 794 798 803 811 819 826 832 836 838 840 842 845 847 847 849 851 852 855 859 860 862 862 863 860 849 846 857 862 862 859 858
770 759 761 760 766 759 750 767 763 761 783 784 791 786 779 774 773 783 782 797 798 807 815 822 829 834 837 839 842 843 844 845 848 849 852 855 858 859 861 862 862 862 859 857 861 865 865 863 861
744 756 758 760 762 775 745 753 793 779 768 765 778 773 770 770 764 769 777 789 798 803 812 818 826 832 836 839 843 843 842 844 845 847 852 854 854 858 860 861 862 863 863 863 865 866 866 866 865
754 764 778 781 772 775 771 754 777 772 743 747 769 763 762 764 759 764 774 784 796 799 807 814 823 830 834 838 841 843 844 845 846 848 851 849 850 852 855 859 861 862 863 864 864 865 866 866 866
758 755 767 799 818 790 780 767 797 740 736 733 739 750 755 764 760 762 768 779 790 796 804 810 818 826 831 835 838 841 844 845 846 848 848 848 848 849 851 857 860 861 861 863 864 864 864 864 865
750 765 733 766 755 770 791 766 751 736 739 738 739 741 752 752 758 765 764 772 782 791 800 807 814 822 827 831 835 839 842 844 845 845 847 847 848 850 851 854 857 858 860 861 862 863 862 863 863
745 736 760 752 800 797 803 809 792 756 750 746 743 741 744 752 760 769 760 768 779 789 797 805 810 818 823 827 831 834 838 841 842 843 844 846 847 849 851 852 855 856 858 859 860 860 859 861 861
753 758 745 742 768 807 807 816 750 758 748 745 744 742 744 749 757 764 760 765 776 783 792 800 807 813 819 823 826 829 832 835 839 841 843 845 847 848 849 851 853 855 855 856 858 858 857 859 859
784 778 761 778 774 792 814 823 760 752 747 743 746 746 748 756 761 767 769 765 772 780 788 795 801 808 814 818 823 826 829 831 833 837 840 842 844 846 847 848 850 851 852 853 855 856 855 855 856